Dumas, TX

12:11 PM CDT on March 30, 2017 (GMT -0500)
Moore County

Weather History for KDUX - December, 2012

Change the Weather History Date:

Sunday, December 23, 2012

  Actual Average (KDHT) Record (KDHT)
Temperature  
Mean Temperature 38 °F -  
Max Temperature 60 °F 44 °F 82 °F (1955)
Min Temperature 17 °F 18 °F -6 °F (1990)
Degree Days  
Heating Degree Days 26    
Moisture  
Dew Point 11 °F    
Average Humidity 42    
Maximum Humidity 73    
Minimum Humidity 11    
Precipitation  
Precipitation 0.00 in - - ()
Sea Level Pressure  
Sea Level Pressure 29.93 in    
Wind  
Wind Speed 9 mph (NW)    
Max Wind Speed 16 mph    
Max Gust Speed 24 mph    
Visibility 10 miles    
Events      
Averages and records for this station are not official NWS values.
T = Trace of Precipitation, MM = Missing Value Source: NWS Daily Summary

Daily Weather History Graph

Daily Weather History Graph

Search for Another Location

Airport or City:

Trip Planner

Search our weather history database for the weather conditions in past years. The results will help you decide how hot, cold, wet, or windy it might be!

Date:

Astronomy

Dec. 23, 2012 Rise Set
Actual Time 7:55 AM CST 5:39 PM CST
Civil Twilight 7:27 AM CST 6:07 PM CST
Nautical Twilight 6:55 AM CST 6:39 PM CST
Astronomical Twilight 6:23 AM CST 7:11 PM CST
Moon 2:27 PM CST (12/23) 3:44 AM CST (12/23)
Length of Visible Light 10h 40m
Length of Day
9h 43m
Waxing Gibbous, 82% of the Moon is Illuminated
Dec 23
Waxing Gibbous
Dec 28
Full
Jan 4
Last Quarter
Jan 11
New
Jan 18
First Quarter

Hourly Weather History & Observations

Time (CST) Temp. Windchill Dew Point Humidity Pressure Visibility Wind Dir Wind Speed Gust Speed Precip Events Conditions
12:15 AM 28.4 °F 19.1 °F 14.0 °F 55% 29.97 in 10.0 mi NW 10.4 mph - N/A   Clear
12:35 AM 28.4 °F 19.7 °F 14.0 °F 55% 29.96 in 10.0 mi NW 9.2 mph - N/A   Clear
12:55 AM 26.6 °F 16.8 °F 14.0 °F 59% 29.96 in 10.0 mi NW 10.4 mph - N/A   Clear
1:15 AM 26.6 °F 16.8 °F 14.0 °F 59% 29.96 in 10.0 mi NW 10.4 mph - N/A   Clear
1:35 AM 26.6 °F 16.8 °F 14.0 °F 59% 29.96 in 10.0 mi NW 10.4 mph - N/A   Clear
1:55 AM 26.6 °F 18.2 °F 14.0 °F 59% 29.95 in 10.0 mi NNW 8.1 mph - N/A   Clear
2:15 AM 26.6 °F 18.2 °F 14.0 °F 59% 29.94 in 10.0 mi NNW 8.1 mph - N/A   Clear
2:35 AM 26.6 °F 18.2 °F 14.0 °F 59% 29.95 in 10.0 mi WNW 8.1 mph - N/A   Clear
2:55 AM 26.6 °F 17.5 °F 14.0 °F 59% 29.96 in 10.0 mi WNW 9.2 mph - N/A   Clear
3:15 AM 26.6 °F 18.2 °F 14.0 °F 59% 29.95 in 10.0 mi WNW 8.1 mph - N/A   Clear
3:35 AM 24.8 °F 16.9 °F 14.0 °F 64% 29.95 in 10.0 mi WNW 6.9 mph - N/A   Clear
3:55 AM 24.8 °F 16.1 °F 12.2 °F 59% 29.93 in 10.0 mi WNW 8.1 mph - N/A   Clear
4:15 AM 24.8 °F 16.1 °F 14.0 °F 64% 29.93 in 10.0 mi WNW 8.1 mph - N/A   Clear
4:35 AM 23.0 °F 14.7 °F 12.2 °F 63% 29.93 in 10.0 mi West 6.9 mph - N/A   Clear
4:55 AM 23.0 °F 13.9 °F 12.2 °F 63% 29.93 in 10.0 mi West 8.1 mph - N/A   Clear
5:15 AM 21.2 °F 11.7 °F 12.2 °F 68% 29.93 in 10.0 mi West 8.1 mph - N/A   Clear
5:35 AM 21.2 °F 10.1 °F 10.4 °F 63% 29.92 in 10.0 mi West 10.4 mph - N/A   Clear
5:55 AM 21.2 °F 11.7 °F 10.4 °F 63% 29.92 in 10.0 mi West 8.1 mph - N/A   Clear
6:15 AM 19.4 °F 7.9 °F 10.4 °F 68% 29.92 in 10.0 mi WSW 10.4 mph - N/A   Clear
6:35 AM 19.4 °F 9.5 °F 10.4 °F 68% 29.92 in 10.0 mi WSW 8.1 mph - N/A   Clear
6:55 AM 19.4 °F 8.6 °F 10.4 °F 68% 29.93 in 10.0 mi West 9.2 mph - N/A   Clear
7:15 AM 19.4 °F 10.4 °F 10.4 °F 68% 29.93 in 10.0 mi West 6.9 mph - N/A   Clear
7:35 AM 21.2 °F 12.6 °F 10.4 °F 63% 29.93 in 10.0 mi WNW 6.9 mph - N/A   Clear
7:55 AM 17.6 °F 9.3 °F 10.4 °F 73% 29.93 in 10.0 mi West 5.8 mph - N/A   Clear
8:15 AM 19.4 °F 11.5 °F 10.4 °F 68% 29.92 in 10.0 mi West 5.8 mph - N/A   Clear
8:35 AM 19.4 °F 12.8 °F 10.4 °F 68% 29.93 in 10.0 mi West 4.6 mph - N/A   Clear
8:55 AM 23.0 °F 17.0 °F 12.2 °F 63% 29.92 in 10.0 mi West 4.6 mph - N/A   Clear
9:15 AM 28.4 °F 24.6 °F 12.2 °F 51% 29.93 in 10.0 mi NNW 3.5 mph - N/A   Clear
9:35 AM 32.0 °F - 12.2 °F 44% 29.92 in 10.0 mi Calm Calm - N/A   Clear
9:55 AM 32.0 °F - 14.0 °F 48% 29.92 in 10.0 mi Calm Calm - N/A   Clear
10:15 AM 35.6 °F 32.8 °F 14.0 °F 41% 29.93 in 10.0 mi North 3.5 mph - N/A   Clear
10:35 AM 41.0 °F - 15.8 °F 36% 29.92 in 10.0 mi Calm Calm - N/A   Clear
10:55 AM 44.6 °F 39.7 °F 12.2 °F 27% 29.93 in 10.0 mi WSW 9.2 mph - N/A   Clear
11:15 AM 44.6 °F 40.2 °F 14.0 °F 29% 29.93 in 10.0 mi WSW 8.1 mph - N/A   Clear
11:35 AM 44.6 °F 41.4 °F 14.0 °F 29% 29.92 in 10.0 mi SW 5.8 mph - N/A   Clear
12:15 PM 51.8 °F - 12.2 °F 21% 29.89 in 10.0 mi WNW 12.7 mph - N/A   Clear
12:35 PM 51.8 °F - 10.4 °F 19% 29.88 in 10.0 mi NW 13.8 mph 17.3 mph N/A   Clear
12:55 PM 53.6 °F - 12.2 °F 19% 29.88 in 10.0 mi NW 11.5 mph - N/A   Clear
1:15 PM 55.4 °F - 10.4 °F 17% 29.87 in 10.0 mi NW 10.4 mph - N/A   Clear
1:35 PM 57.2 °F - 8.6 °F 14% 29.86 in 10.0 mi NNW 11.5 mph - N/A   Clear
1:55 PM 57.2 °F - 10.4 °F 16% 29.86 in 10.0 mi NNW 13.8 mph - N/A   Clear
2:15 PM 59.0 °F - 8.6 °F 14% 29.84 in 10.0 mi North 11.5 mph 18.4 mph N/A   Clear
2:35 PM 59.0 °F - 5.0 °F 12% 29.85 in 10.0 mi North 16.1 mph - N/A   Clear
2:55 PM 60.8 °F - 5.0 °F 11% 29.84 in 10.0 mi North 13.8 mph 24.2 mph N/A   Clear
3:15 PM 59.0 °F - 5.0 °F 12% 29.86 in 10.0 mi North 12.7 mph - N/A   Clear
3:35 PM 59.0 °F - 6.8 °F 13% 29.86 in 10.0 mi North 15.0 mph 19.6 mph N/A   Clear
3:55 PM 59.0 °F - 8.6 °F 14% 29.87 in 10.0 mi North 13.8 mph - N/A   Clear
4:15 PM 59.0 °F - 10.4 °F 15% 29.88 in 10.0 mi North 11.5 mph - N/A   Clear
4:35 PM 57.2 °F - 10.4 °F 16% 29.88 in 10.0 mi North 10.4 mph 18.4 mph N/A   Clear
4:55 PM 55.4 °F - 8.6 °F 15% 29.90 in 10.0 mi North 10.4 mph - N/A   Clear
5:15 PM 51.8 °F - 8.6 °F 18% 29.90 in 10.0 mi North 8.1 mph - N/A   Clear
5:35 PM 50.0 °F - 10.4 °F 20% 29.91 in 10.0 mi North 11.5 mph - N/A   Clear
5:55 PM 44.6 °F 38.4 °F 8.6 °F 23% 29.93 in 10.0 mi North 12.7 mph - N/A   Clear
6:15 PM 42.8 °F 36.6 °F 8.6 °F 25% 29.94 in 10.0 mi North 11.5 mph - N/A   Clear
6:35 PM 41.0 °F 34.3 °F 8.6 °F 26% 29.95 in 10.0 mi North 11.5 mph - N/A   Clear
6:55 PM 41.0 °F 33.9 °F 8.6 °F 26% 29.96 in 10.0 mi North 12.7 mph - N/A   Clear
7:15 PM 37.4 °F 29.8 °F 8.6 °F 30% 29.97 in 10.0 mi North 11.5 mph - N/A   Clear
7:35 PM 35.6 °F 29.2 °F 8.6 °F 33% 29.98 in 10.0 mi North 8.1 mph - N/A   Clear
7:55 PM 33.8 °F 25.8 °F 8.6 °F 35% 30.00 in 10.0 mi North 10.4 mph - N/A   Clear
8:15 PM 32.0 °F 25.6 °F 8.6 °F 38% 29.99 in 10.0 mi NNW 6.9 mph - N/A   Clear
8:35 PM 32.0 °F 25.6 °F 8.6 °F 38% 29.99 in 10.0 mi NW 6.9 mph - N/A   Clear
8:55 PM 32.0 °F 24.2 °F 8.6 °F 38% 29.99 in 10.0 mi NNW 9.2 mph - N/A   Clear
9:15 PM 32.0 °F 25.6 °F 8.6 °F 38% 30.00 in 10.0 mi NW 6.9 mph - N/A   Clear
9:35 PM 32.0 °F 24.8 °F 8.6 °F 38% 30.00 in 10.0 mi NW 8.1 mph - N/A   Clear
9:55 PM 30.2 °F 23.4 °F 8.6 °F 40% 29.98 in 10.0 mi NNW 6.9 mph - N/A   Clear
10:15 PM 30.2 °F 22.6 °F 8.6 °F 40% 29.97 in 10.0 mi North 8.1 mph - N/A   Clear
10:35 PM 28.4 °F 21.2 °F 8.6 °F 43% 29.98 in 10.0 mi NNW 6.9 mph - N/A   Clear
10:55 PM 28.4 °F 22.2 °F 8.6 °F 43% 29.97 in 10.0 mi NNW 5.8 mph - N/A   Clear
11:15 PM 28.4 °F 20.4 °F 8.6 °F 43% 29.99 in 10.0 mi NW 8.1 mph - N/A   Clear
11:35 PM 28.4 °F 19.7 °F 8.6 °F 43% 30.00 in 10.0 mi NW 9.2 mph - N/A   Clear
11:55 PM 28.4 °F 19.7 °F 8.6 °F 43% 30.01 in 10.0 mi WNW 9.2 mph - N/A   Clear